View from above orbital plane
|
View from above satellite
|
Ground track
|
The orbit data is extracted from the following two-line orbital elements,
1 25042U 97069D 13137.49104502 .00000402 00000-0 13633-3 0 3252
2 25042 086.3943 285.6008 0002350 122.0273 238.1151 14.34214542812501
| Epoch (UTC): | 17 May 2013 11:47:06 |
| Eccentricity: | 0.0002350 |
| inclination: | 86.3943° |
| perigee height: | 776 km |
| apogee height: | 779 km |
| right ascension of ascending node: | 285.6008° |
| argument of perigee: | 122.0273° |
| revolutions per day: | 14.34214542 |
| mean anomaly at epoch: | 238.1151° |
| orbit number at epoch: | 81250 |
The dashed part of the orbit path shows where the satellite is in the earth's shadow,
|
|